sat.trackr.live / text

‹ back to catalog

STARLINK-35790

NORAD 67055 · 2025-294AB

PAYLOAD ACTIVE UNKNOWN

§ Identity

Operator
Country
US
Launch date
2025-12-11
Launch site
AFETR
Launch vehicle
Mass (kg)
RCS (m²)

Purposes: comms

External: N2YO · Heavens-Above · Gunter

§ Orbital elements

Epoch: 2026-05-24T23:20:15.006624Z

Period
94.26 min
Inclination
43.0033°
Eccentricity
0.0002195
Mean motion
15.27617370 rev/d
Perigee alt
481.4 km
Apogee alt
484.4 km
Semi-major
6,861.1 km
B*
3.4872e-5
RAAN
327.4466°
Arg perigee
262.4493°
Mean anomaly
97.6109°
Rev number
2,646

§ Raw data

STARLINK-357901 67055U 25294AB  26144.97239591  .00000698  00000+0  34872-4 0  99972 67055  43.0033 327.4466 0002195 262.4493  97.6109 15.27617370 26466

JSON: /api/v1/satellites/67055 · /tle

For live sub-satellite position, see the globe view (requires WebGL).

§ Visibility from observer

Set your observer location to see the next 7 days of passes ≥ 10°. The values pass through the URL so the page stays shareable.

No JS? Fill the form by hand. The geolocation button needs JavaScript.